Weather History for RPLC - November, 2012

Change the Weather History Date:

Friday, November 16, 2012

  Actual Average Record
Temperature  
Mean Temperature 80 °F -  
Max Temperature 84 °F - - ()
Min Temperature 75 °F - - ()
Cooling Degree Days 14    
Growing Degree Days 30 (Base 50)    
Moisture  
Dew Point 72 °F    
Average Humidity 80    
Maximum Humidity 89    
Minimum Humidity 62    
Precipitation  
Precipitation 0.00 in - - ()
Sea Level Pressure  
Sea Level Pressure 29.94 in    
Wind  
Wind Speed 4 mph ()    
Max Wind Speed 12 mph    
Max Gust Speed 22 mph    
Visibility 6.0 miles    
Events Rain    
T = Trace of Precipitation, MM = Missing Value Source: Averaged Metar Reports

Daily Weather History Graph

Daily Weather History Graph

Search for Another Location

Airport or City:

Trip Planner

Search our weather history database for the weather conditions in past years. The results will help you decide how hot, cold, wet, or windy it might be!

Date:

Astronomy

Nov. 16, 2012 Rise Set
Actual Time 5:59 AM +08 5:24 PM +08
Civil Twilight 5:37 AM +08 5:47 PM +08
Nautical Twilight 5:11 AM +08 6:13 PM +08
Astronomical Twilight 4:45 AM +08 6:39 PM +08
Moon 8:11 AM +08 (11/16) 7:52 PM +08 (11/16)
Length of Visible Light 12h 10m
Length of Day
11h 24m
Waxing Crescent, 7% of the Moon is Illuminated
Nov 16
Waxing Crescent
Nov 20
First Quarter
Nov 28
Full
Dec 6
Last Quarter
Dec 13
New

Hourly Weather History & Observations

Time (+08) Temp. Heat Index Dew Point Humidity Pressure Visibility Wind Dir Wind Speed Gust Speed Precip Events Conditions
12:00 AM 77.0 °F - 71.6 °F 83% 29.92 in 6.2 mi WNW 4.6 mph - N/A   Mostly Cloudy
1:00 AM 75.2 °F - 71.6 °F 89% 29.92 in 6.2 mi NW 4.6 mph 21.9 mph N/A   Mostly Cloudy
2:00 AM 77.0 °F - 71.6 °F 83% 29.92 in 6.2 mi Variable 3.5 mph 21.9 mph N/A   Mostly Cloudy
3:00 AM 77.0 °F - 71.6 °F 83% 29.92 in 6.2 mi NW 4.6 mph - N/A   Overcast
4:00 AM 77.0 °F - 71.6 °F 83% 29.92 in 6.2 mi North 4.6 mph - N/A   Overcast
5:00 AM 77.0 °F - 73.4 °F 89% 29.92 in 6.2 mi NW 4.6 mph - N/A   Mostly Cloudy
6:00 AM 77.0 °F - 73.4 °F 89% 29.92 in 5.6 mi NW 2.3 mph 20.7 mph N/A   Overcast
7:00 AM 77.0 °F - 73.4 °F 89% 29.95 in 6.2 mi WNW 3.5 mph - N/A   Mostly Cloudy
8:00 AM 78.8 °F - 73.4 °F 83% 29.98 in 6.2 mi Variable 3.5 mph - N/A   Overcast
10:00 AM 82.4 °F 88.2 °F 73.4 °F 74% 29.98 in 6.2 mi NNE 5.8 mph - N/A   Mostly Cloudy
11:00 AM 84.2 °F 90.9 °F 73.4 °F 70% 29.95 in 6.2 mi NE 6.9 mph - N/A   Mostly Cloudy
12:00 PM 84.2 °F 88.4 °F 69.8 °F 62% 29.92 in 6.2 mi East 11.5 mph - N/A   Mostly Cloudy
2:00 PM 84.2 °F 89.6 °F 71.6 °F 66% 29.89 in 6.2 mi East 8.1 mph - N/A   Mostly Cloudy
3:00 PM 82.4 °F 87.2 °F 71.6 °F 70% 29.89 in 6.2 mi ENE 5.8 mph - N/A Rain Light Rain Showers
4:00 PM 82.4 °F 87.2 °F 71.6 °F 70% 29.92 in 5.0 mi ENE 6.9 mph - N/A Rain Light Rain
5:00 PM 80.6 °F 84.6 °F 71.6 °F 74% 29.95 in 5.6 mi ESE 5.8 mph - N/A Rain Light Rain
6:00 PM 78.8 °F - 69.8 °F 74% 29.92 in 5.0 mi Variable 2.3 mph - N/A   Mostly Cloudy
7:00 PM 78.8 °F - 71.6 °F 78% 29.95 in 5.6 mi Variable 3.5 mph - N/A   Mostly Cloudy
8:00 PM 77.0 °F - 71.6 °F 83% 29.98 in 6.2 mi Variable 3.5 mph - N/A   Mostly Cloudy
9:00 PM 75.2 °F - 71.6 °F 89% 29.98 in 6.2 mi West 5.8 mph - N/A   Mostly Cloudy
10:00 PM 75.2 °F - 71.6 °F 89% 29.98 in 6.2 mi West 4.6 mph - N/A   Mostly Cloudy
11:00 PM 75.2 °F - 69.8 °F 83% 29.98 in 6.2 mi WNW 4.6 mph - N/A   Mostly Cloudy